| time (UTC) | temp F | wind direction | speed MPH | gust MPH | rain 1hr in | rain 24hr in | rain mn in | humidity % | barometer mb |
| 20260904195504 | 86 | 311 | 2.0 | 6.0 | 0.00 | 0.10 | 0.08 | 68 | 1012.9 |
| 20260904195006 | 86 | 281 | 1.0 | 9.0 | 0.00 | 0.10 | 0.08 | 70 | 1012.9 |
| 20260904194506 | 86 | 311 | 1.0 | 9.0 | 0.00 | 0.10 | 0.08 | 70 | 1012.9 |
| 20260904194006 | 85 | 306 | 3.0 | 9.0 | 0.00 | 0.10 | 0.08 | 68 | 1013.0 |
| 20260904193505 | 86 | 360 | 2.0 | 5.0 | 0.00 | 0.10 | 0.08 | 70 | 1013.2 |
| 20260904193010 | 85 | 346 | 1.0 | 5.0 | 0.00 | 0.10 | 0.08 | 69 | 1013.1 |
| 20260904192504 | 85 | 295 | 2.0 | 10.0 | 0.00 | 0.10 | 0.08 | 68 | 1013.3 |
| 20260904192006 | 86 | 27 | 4.0 | 10.0 | 0.00 | 0.10 | 0.08 | 66 | 1013.5 |
| 20260904191506 | 86 | 290 | 2.0 | 7.0 | 0.00 | 0.10 | 0.08 | 70 | 1013.4 |
| 20260904191006 | 86 | 320 | 3.0 | 7.0 | 0.00 | 0.10 | 0.08 | 68 | 1013.4 |
| 20260904190504 | 85 | 311 | 1.0 | 7.0 | 0.00 | 0.10 | 0.08 | 73 | 1013.5 |
| 20260904190007 | 84 | 265 | 3.0 | 6.0 | 0.00 | 0.10 | 0.08 | 71 | 1013.5 |
| 20260904185505 | 83 | 258 | 1.0 | 5.0 | 0.00 | 0.10 | 0.08 | 75 | 1013.6 |
| 20260904184506 | 85 | 303 | 1.0 | 8.0 | 0.00 | 0.10 | 0.08 | 69 | 1013.8 |
| 20260904183505 | 86 | 292 | 1.0 | 5.0 | 0.00 | 0.10 | 0.08 | 72 | 1013.8 |
| 20260904183007 | 85 | 299 | 0.0 | 9.0 | 0.00 | 0.10 | 0.08 | 70 | 1013.9 |
| 20260904182507 | 86 | 299 | 3.0 | 9.0 | 0.00 | 0.10 | 0.08 | 68 | 1013.9 |
| 20260904182005 | 85 | 256 | 2.0 | 5.0 | 0.00 | 0.10 | 0.08 | 74 | 1013.8 |
| 20260904181506 | 84 | 77 | 0.0 | 10.0 | 0.00 | 0.10 | 0.08 | 75 | 1013.9 |
| 20260904181009 | 84 | 321 | 3.0 | 10.0 | 0.00 | 0.10 | 0.08 | 70 | 1013.9 |
| 20260904180504 | 85 | 292 | 2.0 | 8.0 | 0.00 | 0.10 | 0.08 | 70 | 1013.9 |
| 20260904180008 | 85 | 315 | 4.0 | 10.0 | 0.00 | 0.10 | 0.08 | 68 | 1013.8 |
| 20260904175006 | 86 | 321 | 1.0 | 4.0 | 0.00 | 0.10 | 0.08 | 70 | 1013.6 |
| 20260904174506 | 86 | 304 | 0.0 | 6.0 | 0.00 | 0.10 | 0.08 | 71 | 1013.8 |
| 20260904174006 | 85 | 199 | 3.0 | 8.0 | 0.00 | 0.10 | 0.08 | 71 | 1013.8 |
| 20260904173504 | 85 | 336 | 4.0 | 9.0 | 0.00 | 0.10 | 0.08 | 68 | 1014.0 |
| 20260904173007 | 85 | 327 | 4.0 | 9.0 | 0.00 | 0.10 | 0.08 | 70 | 1014.1 |
| 20260904172005 | 85 | 294 | 4.0 | 9.0 | 0.00 | 0.10 | 0.08 | 70 | 1014.1 |
| 20260904171506 | 85 | 341 | 3.0 | 9.0 | 0.00 | 0.10 | 0.08 | 70 | 1014.2 |
| 20260904171006 | 85 | 324 | 2.0 | 5.0 | 0.00 | 0.10 | 0.08 | 71 | 1014.1 |
| 20260904170505 | 84 | 259 | 0.0 | 8.0 | 0.00 | 0.10 | 0.08 | 73 | 1014.1 |
| 20260904170010 | 84 | 299 | 3.0 | 8.0 | 0.00 | 0.10 | 0.08 | 72 | 1014.0 |
| 20260904165504 | 84 | 348 | 3.0 | 7.0 | 0.00 | 0.10 | 0.08 | 72 | 1013.9 |
| 20260904164506 | 84 | 308 | 3.0 | 6.0 | 0.00 | 0.10 | 0.08 | 71 | 1014.0 |
| 20260904164006 | 84 | 310 | 0.0 | 6.0 | 0.00 | 0.10 | 0.08 | 70 | 1014.0 |
| 20260904163504 | 84 | 94 | 3.0 | 6.0 | 0.00 | 0.10 | 0.08 | 72 | 1014.0 |
| 20260904163009 | 84 | 333 | 1.0 | 10.0 | 0.00 | 0.10 | 0.08 | 72 | 1014.1 |
| 20260904162504 | 84 | 84 | 3.0 | 10.0 | 0.00 | 0.10 | 0.08 | 71 | 1014.2 |
| 20260904162007 | 85 | 315 | 2.0 | 7.0 | 0.00 | 0.10 | 0.08 | 71 | 1014.2 |
| 20260904161506 | 84 | 304 | 1.0 | 7.0 | 0.00 | 0.10 | 0.08 | 72 | 1014.2 |
| 20260904160011 | 84 | 300 | 3.0 | 8.0 | 0.00 | 0.10 | 0.08 | 75 | 1014.3 |
| 20260904155505 | 83 | 272 | 2.0 | 5.0 | 0.00 | 0.10 | 0.08 | 72 | 1014.3 |
| 20260904155007 | 83 | 316 | 1.0 | 4.0 | 0.00 | 0.10 | 0.08 | 75 | 1014.3 |
| 20260904154505 | 83 | 325 | 1.0 | 8.0 | 0.00 | 0.10 | 0.08 | 72 | 1014.3 |
| 20260904154006 | 83 | 279 | 2.0 | 10.0 | 0.00 | 0.10 | 0.08 | 75 | 1014.2 |
| 20260904153506 | 83 | 326 | 5.0 | 10.0 | 0.00 | 0.10 | 0.08 | 74 | 1014.3 |
| 20260904153006 | 83 | 18 | 0.0 | 4.0 | 0.00 | 0.10 | 0.08 | 76 | 1014.4 |
| 20260904152013 | 82 | 296 | 0.0 | 9.0 | 0.00 | 0.10 | 0.08 | 76 | 1014.3 |
| 20260904151505 | 82 | 333 | 3.0 | 9.0 | 0.00 | 0.10 | 0.08 | 76 | 1014.3 |
| 20260904151006 | 82 | 339 | 0.0 | 8.0 | 0.00 | 0.10 | 0.08 | 76 | 1014.3 |
| 20260904150508 | 82 | 265 | 2.0 | 7.0 | 0.00 | 0.10 | 0.08 | 75 | 1014.3 |
| 20260904150007 | 82 | 37 | 1.0 | 11.0 | 0.00 | 0.10 | 0.08 | 77 | 1014.3 |
| 20260904145504 | 82 | 360 | 3.0 | 11.0 | 0.00 | 0.10 | 0.08 | 77 | 1014.3 |
| 20260904145006 | 82 | 305 | 4.0 | 8.0 | 0.00 | 0.10 | 0.08 | 77 | 1014.2 |
| 20260904144504 | 82 | 335 | 3.0 | 8.0 | 0.00 | 0.10 | 0.08 | 78 | 1014.2 |
| 20260904144005 | 81 | 300 | 3.0 | 8.0 | 0.00 | 0.10 | 0.08 | 78 | 1014.1 |
| 20260904143506 | 81 | 301 | 4.0 | 5.0 | 0.00 | 0.10 | 0.08 | 78 | 1014.2 |
| 20260904142007 | 80 | 305 | 1.0 | 5.0 | 0.00 | 0.10 | 0.08 | 80 | 1014.1 |
| 20260904141505 | 80 | 273 | 2.0 | 5.0 | 0.00 | 0.10 | 0.08 | 82 | 1013.9 |
| 20260904141005 | 79 | 321 | 0.0 | 2.0 | 0.00 | 0.10 | 0.08 | 81 | 1013.9 |
| 20260904140506 | 79 | 321 | 0.0 | 3.0 | 0.00 | 0.10 | 0.08 | 81 | 1013.9 |
| 20260904140007 | 79 | 321 | 0.0 | 3.0 | 0.00 | 0.10 | 0.08 | 82 | 1013.9 |
| 20260904134504 | 78 | 294 | 2.0 | 5.0 | 0.00 | 0.10 | 0.08 | 83 | 1013.8 |
| 20260904134005 | 78 | 280 | 1.0 | 9.0 | 0.00 | 0.10 | 0.08 | 84 | 1013.9 |
| 20260904133506 | 77 | 318 | 2.0 | 13.0 | 0.00 | 0.10 | 0.08 | 85 | 1014.0 |
| 20260904133006 | 77 | 303 | 5.0 | 13.0 | 0.00 | 0.10 | 0.08 | 85 | 1014.0 |
| 20260904131504 | 76 | 279 | 1.0 | 12.0 | 0.00 | 0.10 | 0.08 | 88 | 1013.9 |
| 20260904131006 | 75 | 318 | 3.0 | 8.0 | 0.00 | 0.10 | 0.08 | 89 | 1014.0 |
| 20260904130506 | 75 | 326 | 2.0 | 8.0 | 0.00 | 0.10 | 0.08 | 90 | 1014.0 |
| 20260904130007 | 75 | 316 | 3.0 | 8.0 | 0.00 | 0.10 | 0.08 | 91 | 1014.1 |
| 20260904125504 | 74 | 294 | 1.0 | 9.0 | 0.00 | 0.10 | 0.08 | 92 | 1013.9 |
| 20260904125007 | 74 | 286 | 5.0 | 9.0 | 0.00 | 0.10 | 0.08 | 93 | 1014.0 |
| 20260904124505 | 74 | 307 | 1.0 | 6.0 | 0.00 | 0.10 | 0.08 | 93 | 1014.1 |
| 20260904123505 | 73 | 300 | 0.0 | 7.0 | 0.00 | 0.10 | 0.08 | 94 | 1014.2 |
| 20260904122005 | 72 | 5 | 2.0 | 5.0 | 0.00 | 0.10 | 0.08 | 95 | 1014.1 |
| 20260904121507 | 72 | 295 | 2.0 | 7.0 | 0.00 | 0.10 | 0.08 | 95 | 1014.1 |
| 20260904120505 | 72 | 252 | 3.0 | 8.0 | 0.00 | 0.10 | 0.08 | 95 | 1014.1 |
| 20260904120009 | 71 | 301 | 2.0 | 4.0 | 0.00 | 0.10 | 0.08 | 95 | 1014.1 |
| 20260904115505 | 71 | 301 | 2.0 | 5.0 | 0.00 | 0.10 | 0.08 | 96 | 1014.1 |
| 20260904115005 | 71 | 287 | 2.0 | 5.0 | 0.00 | 0.10 | 0.08 | 96 | 1014.1 |
| 20260904114506 | 71 | 294 | 2.0 | 4.0 | 0.00 | 0.10 | 0.08 | 96 | 1014.0 |
| 20260904114010 | 71 | 332 | 1.0 | 4.0 | 0.00 | 0.10 | 0.08 | 96 | 1014.0 |
| 20260904113505 | 71 | 302 | 1.0 | 3.0 | 0.00 | 0.10 | 0.08 | 96 | 1013.9 |
| 20260904112507 | 71 | 290 | 1.0 | 4.0 | 0.00 | 0.10 | 0.08 | 96 | 1013.9 |
| 20260904111504 | 71 | 291 | 1.0 | 2.0 | 0.00 | 0.10 | 0.08 | 96 | 1013.6 |
| 20260904111006 | 70 | 291 | 0.0 | 2.0 | 0.00 | 0.10 | 0.08 | 96 | 1013.6 |
| 20260904110505 | 70 | 291 | 1.0 | 3.0 | 0.00 | 0.10 | 0.08 | 96 | 1013.5 |
| 20260904105505 | 70 | 280 | 2.0 | 4.0 | 0.00 | 0.11 | 0.08 | 96 | 1013.4 |
| 20260904104505 | 70 | 305 | 1.0 | 4.0 | 0.00 | 0.11 | 0.08 | 96 | 1013.2 |
| 20260904104006 | 70 | 302 | 2.0 | 4.0 | 0.00 | 0.11 | 0.08 | 96 | 1013.2 |
| 20260904103505 | 71 | 346 | 0.0 | 5.0 | 0.00 | 0.11 | 0.08 | 96 | 1013.1 |
| 20260904103006 | 71 | 304 | 1.0 | 3.0 | 0.00 | 0.11 | 0.08 | 96 | 1013.0 |
| 20260904102505 | 71 | 303 | 1.0 | 3.0 | 0.00 | 0.11 | 0.08 | 96 | 1013.0 |
| 20260904101505 | 71 | 289 | 0.0 | 6.0 | 0.00 | 0.11 | 0.08 | 97 | 1012.9 |
| 20260904100507 | 71 | 279 | 1.0 | 6.0 | 0.00 | 0.11 | 0.08 | 97 | 1013.1 |
| 20260904100006 | 71 | 302 | 0.0 | 5.0 | 0.00 | 0.11 | 0.08 | 97 | 1013.1 |
| 20260904095505 | 71 | 259 | 1.0 | 3.0 | 0.00 | 0.12 | 0.08 | 97 | 1013.1 |
| 20260904095006 | 71 | 277 | 2.0 | 4.0 | 0.00 | 0.12 | 0.08 | 97 | 1013.1 |
| 20260904094505 | 71 | 327 | 1.0 | 4.0 | 0.00 | 0.12 | 0.08 | 97 | 1013.1 |
| 20260904094005 | 72 | 218 | 2.0 | 4.0 | 0.00 | 0.12 | 0.08 | 97 | 1013.0 |
| 20260904093504 | 72 | 302 | 2.0 | 4.0 | 0.00 | 0.12 | 0.08 | 97 | 1013.0 |
| 20260904093007 | 72 | 301 | 1.0 | 3.0 | 0.00 | 0.12 | 0.08 | 97 | 1013.1 |
| 20260904092503 | 72 | 257 | 1.0 | 2.0 | 0.00 | 0.12 | 0.08 | 97 | 1013.1 |
| 20260904092005 | 72 | 257 | 0.0 | 0.0 | 0.00 | 0.12 | 0.08 | 97 | 1013.1 |
| 20260904091008 | 72 | 257 | 1.0 | 4.0 | 0.00 | 0.12 | 0.08 | 97 | 1013.3 |
| 20260904090504 | 73 | 263 | 0.0 | 2.0 | 0.00 | 0.12 | 0.08 | 97 | 1013.4 |
| 20260904090007 | 73 | 263 | 0.0 | 2.0 | 0.00 | 0.44 | 0.08 | 97 | 1013.5 |
| 20260904085503 | 73 | 262 | 0.0 | 2.0 | 0.00 | 0.44 | 0.08 | 97 | 1013.5 |
| 20260904084503 | 73 | 262 | 0.0 | 1.0 | 0.00 | 0.44 | 0.08 | 97 | 1013.6 |
| 20260904084007 | 73 | 262 | 0.0 | 4.0 | 0.00 | 0.44 | 0.08 | 97 | 1013.6 |
| 20260904083504 | 73 | 297 | 1.0 | 4.0 | 0.00 | 0.44 | 0.08 | 97 | 1013.6 |
| 20260904082504 | 73 | 342 | 2.0 | 4.0 | 0.00 | 0.44 | 0.08 | 97 | 1013.3 |
| 20260904082005 | 73 | 304 | 0.0 | 5.0 | 0.00 | 0.44 | 0.08 | 97 | 1013.4 |
| 20260904080505 | 73 | 298 | 1.0 | 3.0 | 0.00 | 0.44 | 0.08 | 97 | 1013.7 |
| 20260904080009 | 73 | 298 | 0.0 | 2.0 | 0.00 | 0.44 | 0.08 | 97 | 1013.6 |
| 20260904075503 | 73 | 298 | 0.0 | 2.0 | 0.00 | 0.44 | 0.08 | 97 | 1013.7 |
| 20260904075004 | 73 | 298 | 0.0 | 1.0 | 0.00 | 0.44 | 0.08 | 97 | 1013.7 |
| 20260904074005 | 73 | 298 | 0.0 | 0.0 | 0.00 | 0.44 | 0.08 | 96 | 1013.6 |
| 20260904073503 | 73 | 298 | 0.0 | 0.0 | 0.00 | 0.44 | 0.08 | 96 | 1013.6 |
| 20260904073006 | 73 | 298 | 0.0 | 1.0 | 0.00 | 0.44 | 0.08 | 96 | 1013.6 |
| 20260904072504 | 73 | 298 | 0.0 | 2.0 | 0.00 | 0.44 | 0.08 | 96 | 1013.6 |
| 20260904071505 | 73 | 198 | 0.0 | 0.0 | 0.00 | 0.44 | 0.08 | 96 | 1013.4 |
| 20260904071005 | 73 | 198 | 0.0 | 0.0 | 0.00 | 0.44 | 0.08 | 96 | 1013.2 |
| 20260904070504 | 73 | 198 | 0.0 | 0.0 | 0.00 | 0.44 | 0.08 | 96 | 1013.1 |
| 20260904070006 | 73 | 198 | 0.0 | 0.0 | 0.00 | 0.59 | 0.08 | 96 | 1012.9 |
| 20260904065504 | 73 | 198 | 0.0 | 0.0 | 0.00 | 0.59 | 0.08 | 96 | 1013.0 |
| 20260904065004 | 73 | 198 | 0.0 | 0.0 | 0.00 | 0.59 | 0.08 | 96 | 1012.9 |
| 20260904064505 | 73 | 198 | 0.0 | 0.0 | 0.00 | 0.59 | 0.08 | 96 | 1013.0 |
| 20260904064005 | 73 | 198 | 0.0 | 0.0 | 0.00 | 0.59 | 0.08 | 96 | 1012.9 |
| 20260904063504 | 73 | 198 | 0.0 | 0.0 | 0.00 | 0.59 | 0.08 | 96 | 1012.8 |
| 20260904063006 | 73 | 198 | 0.0 | 0.0 | 0.00 | 0.59 | 0.08 | 95 | 1012.7 |
| 20260904062507 | 73 | 198 | 0.0 | 0.0 | 0.00 | 0.59 | 0.08 | 95 | 1012.7 |
| 20260904061507 | 73 | 198 | 0.0 | 0.0 | 0.00 | 0.59 | 0.08 | 96 | 1012.8 |
| 20260904061007 | 73 | 198 | 0.0 | 0.0 | 0.00 | 0.59 | 0.08 | 95 | 1012.9 |
| 20260904060010 | 73 | 198 | 0.0 | 0.0 | 0.01 | 0.59 | 0.08 | 95 | 1013.1 |
| 20260904055006 | 73 | 198 | 0.0 | 1.0 | 0.01 | 0.78 | 0.08 | 95 | 1013.2 |
| 20260904054507 | 73 | 198 | 0.0 | 1.0 | 0.01 | 0.78 | 0.08 | 95 | 1013.3 |
| 20260904054006 | 73 | 198 | 0.0 | 0.0 | 0.01 | 0.78 | 0.08 | 95 | 1013.4 |
| 20260904053009 | 74 | 198 | 0.0 | 0.0 | 0.01 | 0.78 | 0.08 | 95 | 1013.5 |
| 20260904052505 | 74 | 198 | 0.0 | 0.0 | 0.01 | 0.78 | 0.08 | 94 | 1013.6 |
| 20260904052006 | 74 | 198 | 0.0 | 0.0 | 0.01 | 0.78 | 0.08 | 94 | 1013.6 |
| 20260904051507 | 74 | 198 | 0.0 | 0.0 | 0.05 | 0.78 | 0.08 | 94 | 1013.5 |
| 20260904051006 | 74 | 198 | 0.0 | 0.0 | 0.05 | 0.78 | 0.08 | 94 | 1013.6 |
| 20260904050506 | 74 | 198 | 0.0 | 0.0 | 0.05 | 0.78 | 0.08 | 94 | 1013.4 |
| 20260904050008 | 74 | 198 | 0.0 | 0.0 | 0.07 | 0.77 | 0.07 | 94 | 1013.3 |
| 20260904045007 | 74 | 198 | 0.0 | 1.0 | 0.09 | 0.77 | 0.07 | 93 | 1013.4 |
| 20260904044507 | 74 | 198 | 0.0 | 1.0 | 0.09 | 0.77 | 0.07 | 93 | 1013.6 |
| 20260904044007 | 74 | 198 | 0.0 | 0.0 | 0.09 | 0.77 | 0.07 | 93 | 1013.5 |
| 20260904043505 | 74 | 198 | 0.0 | 0.0 | 0.09 | 0.77 | 0.07 | 93 | 1013.4 |
| 20260904043008 | 74 | 198 | 0.0 | 2.0 | 0.09 | 0.77 | 0.07 | 93 | 1013.6 |
| 20260904042506 | 75 | 198 | 0.0 | 2.0 | 0.09 | 0.77 | 0.07 | 92 | 1013.6 |
| 20260904042007 | 75 | 329 | 0.0 | 1.0 | 0.09 | 0.77 | 0.07 | 92 | 1013.7 |
| 20260904041507 | 75 | 329 | 0.0 | 5.0 | 0.05 | 0.73 | 0.03 | 92 | 1013.8 |
| 20260904041007 | 75 | 329 | 0.0 | 10.0 | 0.05 | 0.73 | 0.03 | 92 | 1014.0 |
| 20260904040010 | 76 | 351 | 3.0 | 14.0 | 0.02 | 0.70 | 0.00 | 93 | 1014.8 |
| 20260904035505 | 76 | 30 | 3.0 | 14.0 | 0.00 | 0.68 | 0.68 | 93 | 1014.4 |
| 20260904035006 | 76 | 304 | 1.0 | 2.0 | 0.00 | 0.68 | 0.68 | 94 | 1014.4 |
| 20260904034507 | 76 | 200 | 0.0 | 1.0 | 0.00 | 0.68 | 0.68 | 93 | 1014.0 |
| 20260904033505 | 76 | 200 | 0.0 | 0.0 | 0.00 | 0.68 | 0.68 | 93 | 1014.0 |
| 20260904033008 | 76 | 200 | 0.0 | 0.0 | 0.00 | 0.68 | 0.68 | 93 | 1014.2 |
| 20260904032505 | 76 | 200 | 0.0 | 1.0 | 0.00 | 0.68 | 0.68 | 93 | 1014.3 |
| 20260904032006 | 76 | 200 | 0.0 | 1.0 | 0.00 | 0.68 | 0.68 | 93 | 1014.3 |
| 20260904031006 | 76 | 200 | 0.0 | 0.0 | 0.00 | 0.68 | 0.68 | 93 | 1014.4 |
| 20260904030507 | 76 | 200 | 0.0 | 0.0 | 0.00 | 0.68 | 0.68 | 93 | 1014.4 |
| 20260904030011 | 77 | 200 | 0.0 | 0.0 | 0.00 | 0.68 | 0.68 | 93 | 1014.4 |
| 20260904025008 | 77 | 200 | 0.0 | 0.0 | 0.00 | 0.68 | 0.68 | 93 | 1014.5 |
| 20260904024510 | 77 | 200 | 0.0 | 0.0 | 0.00 | 0.68 | 0.68 | 92 | 1014.6 |
| 20260904024007 | 77 | 200 | 0.0 | 0.0 | 0.00 | 0.68 | 0.68 | 92 | 1014.6 |
| 20260904023505 | 77 | 200 | 0.0 | 0.0 | 0.00 | 0.68 | 0.68 | 92 | 1014.5 |
| 20260904023010 | 77 | 200 | 0.0 | 1.0 | 0.00 | 0.68 | 0.68 | 92 | 1014.5 |
| 20260904022505 | 77 | 200 | 0.0 | 1.0 | 0.00 | 0.68 | 0.68 | 92 | 1014.3 |
| 20260904021505 | 77 | 200 | 0.0 | 0.0 | 0.00 | 0.68 | 0.68 | 92 | 1014.5 |
| 20260904021008 | 77 | 200 | 0.0 | 0.0 | 0.00 | 0.68 | 0.68 | 91 | 1014.5 |
| 20260904020505 | 77 | 200 | 0.0 | 0.0 | 0.00 | 0.68 | 0.68 | 91 | 1014.4 |
| 20260904020007 | 77 | 200 | 0.0 | 0.0 | 0.00 | 0.68 | 0.68 | 91 | 1014.4 |
| 20260904015507 | 77 | 200 | 0.0 | 0.0 | 0.00 | 0.68 | 0.68 | 91 | 1014.3 |
| 20260904014009 | 78 | 200 | 0.0 | 0.0 | 0.00 | 0.68 | 0.68 | 91 | 1014.4 |
| 20260904013505 | 78 | 200 | 0.0 | 0.0 | 0.00 | 0.68 | 0.68 | 91 | 1014.5 |
| 20260904012506 | 78 | 200 | 0.0 | 0.0 | 0.00 | 0.68 | 0.68 | 90 | 1014.6 |
| 20260904012006 | 78 | 200 | 0.0 | 0.0 | 0.00 | 0.68 | 0.68 | 90 | 1014.8 |
| 20260904011505 | 78 | 200 | 0.0 | 0.0 | 0.00 | 0.68 | 0.68 | 90 | 1015.0 |
| 20260904010007 | 79 | 200 | 0.0 | 0.0 | 0.00 | 0.68 | 0.68 | 90 | 1015.2 |
| 20260904005510 | 79 | 200 | 0.0 | 0.0 | 0.00 | 0.68 | 0.68 | 90 | 1014.9 |
| 20260904005005 | 79 | 200 | 0.0 | 0.0 | 0.00 | 0.68 | 0.68 | 89 | 1014.9 |
| 20260904004005 | 79 | 200 | 0.0 | 0.0 | 0.00 | 0.68 | 0.68 | 89 | 1014.9 |
| 20260904003504 | 79 | 182 | 0.0 | 0.0 | 0.00 | 0.68 | 0.68 | 89 | 1014.9 |
| 20260904003010 | 79 | 182 | 0.0 | 0.0 | 0.00 | 0.68 | 0.68 | 89 | 1014.8 |
| 20260904002505 | 79 | 182 | 0.0 | 0.0 | 0.00 | 0.68 | 0.68 | 89 | 1014.8 |
| 20260904002005 | 79 | 182 | 0.0 | 0.0 | 0.00 | 0.68 | 0.68 | 88 | 1014.6 |
| 20260904001506 | 80 | 182 | 0.0 | 0.0 | 0.00 | 0.68 | 0.68 | 88 | 1014.6 |
| 20260904001006 | 80 | 182 | 0.0 | 0.0 | 0.00 | 0.68 | 0.68 | 88 | 1014.4 |
| 20260904000505 | 80 | 182 | 0.0 | 0.0 | 0.00 | 0.68 | 0.68 | 88 | 1014.3 |
| 20260904000007 | 80 | 182 | 0.0 | 0.0 | 0.00 | 0.68 | 0.68 | 88 | 1014.3 |
| 20260903235504 | 80 | 182 | 0.0 | 2.0 | 0.00 | 0.68 | 0.68 | 88 | 1014.3 |
| 20260903235005 | 80 | 182 | 0.0 | 2.0 | 0.00 | 0.68 | 0.68 | 88 | 1014.3 |
| 20260903234505 | 80 | 182 | 0.0 | 1.0 | 0.00 | 0.68 | 0.68 | 88 | 1014.4 |
| 20260903234006 | 80 | 182 | 0.0 | 1.0 | 0.00 | 0.68 | 0.68 | 88 | 1014.5 |
| 20260903233506 | 80 | 182 | 0.0 | 3.0 | 0.00 | 0.68 | 0.68 | 88 | 1014.6 |
| 20260903232504 | 80 | 232 | 0.0 | 2.0 | 0.00 | 0.68 | 0.68 | 87 | 1014.5 |
| 20260903232006 | 81 | 232 | 0.0 | 2.0 | 0.00 | 0.68 | 0.68 | 87 | 1014.3 |
| 20260903231006 | 81 | 223 | 0.0 | 2.0 | 0.00 | 0.68 | 0.68 | 87 | 1014.3 |
| 20260903230506 | 81 | 223 | 0.0 | 5.0 | 0.00 | 0.68 | 0.68 | 87 | 1014.4 |
| 20260903230006 | 81 | 164 | 1.0 | 5.0 | 0.00 | 0.68 | 0.68 | 87 | 1014.1 |
| 20260903225505 | 82 | 5 | 0.0 | 1.0 | 0.00 | 0.68 | 0.68 | 86 | 1014.2 |
| 20260903225006 | 82 | 5 | 0.0 | 3.0 | 0.00 | 0.68 | 0.68 | 86 | 1014.2 |
| 20260903224504 | 82 | 5 | 1.0 | 3.0 | 0.00 | 0.68 | 0.68 | 85 | 1014.1 |
| 20260903224005 | 83 | 160 | 0.0 | 3.0 | 0.00 | 0.68 | 0.68 | 85 | 1014.0 |
| 20260903223506 | 83 | 190 | 0.0 | 0.0 | 0.00 | 0.68 | 0.68 | 85 | 1013.9 |
| 20260903223005 | 83 | 190 | 0.0 | 2.0 | 0.00 | 0.68 | 0.68 | 84 | 1013.9 |
| 20260903221504 | 84 | 302 | 1.0 | 4.0 | 0.00 | 0.68 | 0.68 | 83 | 1014.0 |
| 20260903221006 | 84 | 184 | 1.0 | 3.0 | 0.00 | 0.68 | 0.68 | 82 | 1014.0 |
| 20260903220504 | 84 | 331 | 1.0 | 5.0 | 0.00 | 0.68 | 0.68 | 81 | 1014.1 |
| 20260903220009 | 84 | 135 | 1.0 | 5.0 | 0.00 | 0.68 | 0.68 | 81 | 1014.1 |
| 20260903215504 | 85 | 205 | 1.0 | 4.0 | 0.00 | 0.68 | 0.68 | 81 | 1014.0 |
| 20260903215005 | 85 | 249 | 1.0 | 4.0 | 0.00 | 0.68 | 0.68 | 81 | 1013.9 |
| 20260903214506 | 84 | 58 | 1.0 | 4.0 | 0.00 | 0.68 | 0.68 | 81 | 1013.8 |
| 20260903214005 | 85 | 230 | 1.0 | 4.0 | 0.00 | 0.68 | 0.68 | 80 | 1013.7 |
| 20260903213007 | 85 | 184 | 1.0 | 4.0 | 0.00 | 0.68 | 0.68 | 81 | 1013.6 |
| 20260903211506 | 86 | 286 | 1.0 | 5.0 | 0.00 | 0.68 | 0.68 | 78 | 1013.6 |
| 20260903210504 | 86 | 238 | 0.0 | 3.0 | 0.00 | 0.68 | 0.68 | 78 | 1013.6 |
| 20260903205006 | 86 | 231 | 1.0 | 6.0 | 0.00 | 0.68 | 0.68 | 78 | 1013.7 |
| 20260903204006 | 86 | 295 | 2.0 | 5.0 | 0.00 | 0.68 | 0.68 | 76 | 1013.7 |
| 20260903203507 | 87 | 181 | 2.0 | 5.0 | 0.00 | 0.68 | 0.68 | 75 | 1013.7 |
| 20260903203010 | 86 | 198 | 1.0 | 5.0 | 0.00 | 0.68 | 0.68 | 76 | 1013.8 |
| 20260903202504 | 86 | 172 | 2.0 | 6.0 | 0.00 | 0.68 | 0.68 | 75 | 1013.9 |
| 20260903202007 | 87 | 318 | 3.0 | 6.0 | 0.00 | 0.68 | 0.68 | 74 | 1014.1 |
| 20260903201505 | 87 | 343 | 1.0 | 6.0 | 0.00 | 0.68 | 0.68 | 75 | 1014.0 |
| 20260903200506 | 87 | 355 | 2.0 | 7.0 | 0.00 | 0.68 | 0.68 | 72 | 1014.1 |
| 20260903200006 | 87 | 344 | 3.0 | 9.0 | 0.00 | 0.68 | 0.68 | 72 | 1014.2 |